Weather History for Greenville, ME

Change the Weather History Date:

Friday, October 5, 2012

  Actual Average (KMLT) Record (KMLT)
Temperature  
Mean Temperature 60 °F 49 °F  
Max Temperature 69 °F 59 °F 82 °F (1916)
Min Temperature 51 °F 39 °F 23 °F (1934)
Degree Days  
Heating Degree Days 6 16  
Month to date heating degree days 75  
Since 1 July heating degree days 403  
Cooling Degree Days 0 0  
Month to date cooling degree days 0  
Year to date cooling degree days 268  
Growing Degree Days 10 (Base 50)    
Moisture  
Dew Point 54 °F    
Average Humidity 90    
Maximum Humidity 100    
Minimum Humidity 59    
Precipitation  
Precipitation 0.02 in 0.15 in 0.94 in (1941)
Month to date precipitation 0.70  
Year to date precipitation 31.35  
Sea Level Pressure  
Sea Level Pressure 29.93 in    
Wind  
Wind Speed 1 mph (SE)    
Max Wind Speed 5 mph    
Max Gust Speed -    
T = Trace of Precipitation, MM = Missing Value Source: NWS Daily Summary

Daily Weather History Graph

Daily Weather History Graph

Search for Another Location

Airport:

Trip Planner

Search our weather history database for the weather conditions in past years. The results will help you decide how hot, cold, wet, or windy it might be!

Date:

Astronomy

Oct. 05, 2012 Rise Set
Actual Time 6:42 AM EDT 6:10 PM EDT
Civil Twilight 6:12 AM EDT 6:39 PM EDT
Nautical Twilight 5:38 AM EDT 7:13 PM EDT
Astronomical Twilight 5:03 AM EDT 7:48 PM EDT
Moon 9:17 PM EDT (10/5) 12:00 PM EDT (10/5)
Length of Visible Light 12h 27m
Length of Day
11h 28m
Waning Gibbous, 74% of the Moon is Illuminated
Oct 5
Waning Gibbous
Oct 8
Last Quarter
Oct 15
New
Oct 21
First Quarter
Oct 29
Full

Hourly Weather History & Observations

Time (EDT) Temp. Dew Point Humidity Pressure Visibility Wind Dir Wind Speed Gust Speed Precip Events Conditions
12:56 AM 52.0 °F 51.1 °F 97% 30.01 in - Calm Calm - 0.02 in   Unknown
1:56 AM 52.0 °F 51.1 °F 97% 29.99 in - Calm Calm - N/A   Unknown
2:56 AM 51.1 °F 51.1 °F 100% 29.99 in - ESE 4.6 mph - N/A   Unknown
3:56 AM 51.1 °F 51.1 °F 100% 29.98 in - Calm Calm - N/A   Unknown
4:56 AM 51.1 °F 51.1 °F 100% 29.98 in - Calm Calm - N/A   Unknown
5:56 AM 51.1 °F 51.1 °F 100% 29.98 in - Calm Calm - N/A   Unknown
6:56 AM 51.1 °F 51.1 °F 100% 29.98 in - Calm Calm - N/A   Unknown
7:56 AM 51.1 °F 51.1 °F 100% 29.97 in - Calm Calm - N/A   Unknown
8:56 AM 53.1 °F 53.1 °F 100% 29.96 in - Calm Calm - N/A   Unknown
9:56 AM 55.0 °F 54.0 °F 96% 29.95 in - Calm Calm - N/A   Unknown
10:56 AM 57.9 °F 55.0 °F 90% 29.94 in - Variable 3.5 mph - N/A   Unknown
11:56 AM 62.1 °F 55.9 °F 80% 29.93 in - Calm Calm - N/A   Unknown
12:56 PM 64.9 °F 53.1 °F 65% 29.91 in - Variable 3.5 mph - N/A   Unknown
1:56 PM 66.0 °F 54.0 °F 65% 29.90 in - Variable 3.5 mph - N/A   Unknown
2:56 PM 68.0 °F 53.1 °F 59% 29.88 in - Calm Calm - N/A   Unknown
3:56 PM 66.0 °F 57.9 °F 75% 29.87 in - Variable 3.5 mph - N/A   Unknown
4:56 PM 64.0 °F 57.0 °F 78% 29.87 in - SE 3.5 mph - N/A   Unknown
5:56 PM 62.1 °F 57.0 °F 84% 29.87 in - Variable 3.5 mph - N/A   Unknown
6:56 PM 61.0 °F 57.0 °F 87% 29.88 in - Calm Calm - N/A   Unknown
7:56 PM 60.1 °F 57.0 °F 90% 29.88 in - Calm Calm - N/A   Unknown
8:56 PM 57.9 °F 57.0 °F 97% 29.88 in - Calm Calm - N/A   Unknown
9:56 PM 57.0 °F 57.0 °F 100% 29.88 in - Variable 3.5 mph - N/A   Unknown
10:56 PM 57.0 °F 57.0 °F 100% 29.87 in - SE 4.6 mph - N/A   Unknown
11:56 PM 57.0 °F 57.0 °F 100% 29.86 in - Calm Calm - N/A   Unknown